Regional Weather Roundup
Issued by NWS San Angelo, TX

Current Version | Previous Version | Text Only | Print | Product List | Glossary On
Versions: 1 2 3 4 5 6 7 8 9 10 11 12 13 14 15 16 17 18 19 20 21 22 23 24 25 26 27 28 29 30 31 32 33 34 35 36 37 38 39 40 41 42 43 44 45 46 47 48 49 50
000
ASUS44 KSJT 241910
RWRSJT
WEST CENTRAL TEXAS REGIONAL WEATHER ROUNDUP
NATIONAL WEATHER SERVICE SAN ANGELO TX
200 PM CDT SUN MAY 24 2015

NOTE: "FAIR" INDICATES FEW OR NO CLOUDS BELOW 12,000 FEET WITH NO
SIGNIFICANT WEATHER AND/OR OBSTRUCTIONS TO VISIBILITY.

TXZ049-054-064>066-071>073-076>078-098-099-113-114-127-128-139-140-
154-155-168>170-242000
...LOCATIONS ACROSS WEST CENTRAL TEXAS...

CITY           SKY/WX    TMP DP  RH WIND       PRES   REMARKS
SAN ANGELO     MOSUNNY   78  65  63 SE8       29.89S
ABILENE        PTSUNNY   78  63  59 S14       29.87F
DYESS AFB      MOSUNNY   79  59  50 S13       29.85F
JUNCTION       MOSUNNY   78  64  61 S8        29.90F
SWEETWATER     SUNNY     78  60  54 S12G22    29.91S
BROWNWOOD      MOSUNNY   73  63  68 SE14      29.90F
COLEMAN        MOCLDY    75  66  73 S13G18    29.91S
SONORA         MOSUNNY   79  63  57 S9        29.94F
OZONA          FAIR      82  50  32 CALM      29.92F
BRADY          CLOUDY    73  64  73 S7        29.91F
$$

TEXAS PANHANDLE/OKLAHOMA PANHANDLE

CITY           SKY/WX    TMP DP  RH WIND       PRES   REMARKS
AMARILLO       SUNNY     72  56  57 S16G23    29.85F
BORGER         MOSUNNY   73  56  54 S8        29.82F
CANADIAN       CLOUDY    70  62  76 S10       29.82F
DALHART        SUNNY     68  52  56 S6        29.86F
DUMAS          CLEAR     69  54  58 S7        29.84F
GUYMON         NOT AVBL
HEREFORD       CLEAR     74  53  46 MISG      29.86F
PAMPA          MOCLDY    70  56  62 S10G18    29.85S
PERRYTON       CLOUDY    69  58  69 S9        29.83F
$$

SOUTHERN PANHANDLE/SOUTH PLAINS/ROLLING PLAINS

CITY           SKY/WX    TMP DP  RH WIND       PRES   REMARKS
LUBBOCK        MOSUNNY   77  51  40 SW10G18   29.85F
SNYDER         SUNNY     78  60  53 S12G18    29.87F
CHILDRESS      CLOUDY    73  63  70 S9        29.83F
SEMINOLE       CLEAR     79  35  20 W13G23    29.90S
$$

PERMIAN BASIN

CITY           SKY/WX    TMP DP  RH WIND       PRES   REMARKS
MIDLAND        SUNNY     81  41  24 SW15      29.89S
ODESSA           N/A    N/A N/A N/A MISG      29.90F
WINK           SUNNY     83  29  14 W17G24    29.86F
$$

FAR WEST/SOUTHWEST MOUNTAINS/TRANS PECOS

CITY           SKY/WX    TMP DP  RH WIND       PRES   REMARKS
ALPINE         CLEAR     78  28  16 SW17      30.05S
DRYDEN         NOT AVBL
EL PASO        MOSUNNY   77  25  14 SW15G24   29.95F
FORT STOCKTON  SUNNY     81  31  16 W16G22    29.91F
GUADALUPE PASS SUNNY     73  26  17 SW25G43   29.98F
MARFA          SUNNY     73  32  21 W14G21    30.04F
PECOS          CLEAR     81  37  20 SW12      29.88F
$$

DALLAS/FORT WORTH METROPLEX

CITY           SKY/WX    TMP DP  RH WIND       PRES   REMARKS
DFW AIRPORT    LGT RAIN  71  66  84 S13       29.86F
FTW MEACHAM    LGT RAIN  70  65  84 S14       29.86F
DAL-EXECUTIVE  RAIN      71  66  84 SW6       29.90R
GRAND PRAIRIE  LGT RAIN  72  66  83 SW12      29.91
ADDISON        MOSUNNY   75  66  73 S7        29.89F
MESQUITE         N/A     72  70  94 S7        29.90S
LANCASTER      RAIN      70  65  85 W7        29.91R
$$

NORTH CENTRAL TEXAS

CITY           SKY/WX    TMP DP  RH WIND       PRES   REMARKS
SHRMAN/DENISON CLOUDY    73  69  88 CALM      29.86F
GAINESVILLE    CLOUDY    71  65  81 S3        29.87F
BRIDGEPORT     CLOUDY    71  67  86 SW9G16    29.88R
DENTON         CLOUDY    73  66  78 S15       29.85F
WAXAHACHIE     LGT RAIN  70  70  99 SW6       29.92S
GRANBURY       CLOUDY    71  65  81 S7        29.90S
$$

WESTERN NORTH TEXAS

CITY           SKY/WX    TMP DP  RH WIND       PRES   REMARKS
WICHITA FALLS  CLOUDY    75  66  73 SE9       29.83F
VERNON         CLOUDY    76  62  61 S9        29.84F
BRECKENRIDGE   PTCLDY    78  62  59 S15       29.86S
COMANCHE       CLOUDY    71  68  88 S9        29.92S
$$

CENTRAL AND SOUTH CENTRAL TEXAS

CITY           SKY/WX    TMP DP  RH WIND       PRES   REMARKS
AUSTIN/BERGSTM CLOUDY    78  69  73 S17G24    29.90F
WACO           CLOUDY    72  66  81 S5        29.92F
HILLSBORO      CLOUDY    72  66  81 SW6       29.92F
TEMPLE         CLOUDY    75  64  69 SE6       29.90F
KILLEEN-GRAY   CLOUDY    73  66  79 VRB1      29.91F
FORT HOOD      CLOUDY    74  66  78 SE2       29.90F
GEORGETOWN     CLOUDY    75  68  78 S12       29.90F
LAGO VISTA     CLOUDY    73  67  81 S7        29.93F
SAN MARCOS     CLOUDY    79  66  65 S14G21    29.90F
NEW BRAUNFELS  CLOUDY    80  70  71 S20       29.89F
RANDOLPH AFB   PTSUNNY   77  68  73 S18       29.90F
SAN ANTONIO    CLOUDY    78  67  68 S14       29.91F
STINSON        PTSUNNY   79  68  69 S13       29.88F
PLEASANTON     NOT AVBL
LA GRANGE      CLOUDY    80  72  76 S13       29.89F
GIDDINGS       CLOUDY    78  69  73 S12G22    29.93F
$$

EAST TEXAS

CITY           SKY/WX    TMP DP  RH WIND       PRES   REMARKS
PARIS          CLOUDY    70  64  83 W3        29.88S
CLARKSVILLE    NOT AVBL
TYLER          CLOUDY    75  67  76 S15       29.92R
LONGVIEW       CLOUDY    76  68  76 S18G28    29.92R
PALESTINE      CLOUDY    74  69  87 S6        29.94R
NACOGDOCHES    CLOUDY    73  68  83 S14       29.95S
$$

TEXAS HILL COUNTRY AND EDWARDS PLATEAU

CITY           SKY/WX    TMP DP  RH WIND       PRES   REMARKS
LLANO          MOCLDY    77  68  73 NE6       29.93F
HORSESHOE BAY  CLOUDY    77  67  72 S10       29.91F
KERRVILLE      PTSUNNY   77  67  72 S10       29.92F
FREDERICKSBRG  CLOUDY    76  65  67 S12       29.91F
ROCKSPRINGS    CLEAR     77  64  65 S6        29.95F
HONDO          PTSUNNY   79  69  71 S13       29.91F
UVALDE         PTCLDY    80  68  66 S5        29.89F
DEL RIO        SUNNY     82  66  58 CALM      29.87F
$$

SOUTHEAST TEXAS

CITY           SKY/WX    TMP DP  RH WIND       PRES   REMARKS
COLLEGE STN    CLOUDY    78  69  73 S14       29.91F
CALDWELL       CLOUDY    77  72  83 CALM      29.94S
CROCKETT       NOT AVBL
BRENHAM        CLOUDY    80  71  72 S16       29.92F
HUNTSVILLE     CLOUDY    78  69  73 S13G23    29.94F
CONROE         CLOUDY    78  67  68 S16       29.95F
HOUSTON BUSH   CLOUDY    79  69  71 S9        29.95F
HOUSTON HOBBY  CLOUDY    78  71  79 S8        29.95F
PERLAND        CLOUDY    79  70  74 S9        29.96F
WHARTON        CLOUDY    78  71  77 S10       29.94F
$$

THE UPPER TEXAS COAST

CITY           SKY/WX    TMP DP  RH WIND       PRES   REMARKS
ORANGE         LGT RAIN  73  70  90 SE9       30.01F
PORT ARTHUR    LGT RAIN  73  70  90 SE7       29.98F
GALVESTON      CLOUDY    76  72  87 SE16      29.94F
ANGLETON       CLOUDY    76  72  87 S12       29.94F
BAY CITY       CLOUDY    80  73  80 S10       29.93F
$$

TEXAS COASTAL BEND, RIO GRANDE PLAINS DEEP SOUTH TEXAS

CITY           SKY/WX    TMP DP  RH WIND       PRES   REMARKS
VICTORIA       CLOUDY    81  72  74 S15       29.92F
BEEVILLE       FAIR      82  70  68 S18G26    29.90F
ROCKPORT       CLOUDY    82  69  64 S10G17    29.91F
PORT ARANSAS   CLOUDY    81  72  75 S16G23    29.91F
PORT LAVACA    CLOUDY    80  72  76 S13       29.93F
CORPUS CHRISTI MOSUNNY   82  72  71 S23       29.90F
KINGSVILLE NAS NOT AVBL
COTULLA        MOSUNNY   84  70  62 S9        29.87F
LAREDO         MOSUNNY   87  71  58 S12       29.89F
BROWNSVILLE    MOSUNNY   85  72  65 S21       29.92F
PORT ISABEL    MOSUNNY   83  28  13 SE16G23   29.91F
HEBBRONVILLE     N/A     84  70  62 S10G16    29.90F
MCALLEN        MOSUNNY   89  74  60 S14       29.89F
WESLACO        PTSUNNY   86  72  61 S21       29.89F
FALFURRIAS     CLEAR     87  71  57 S13G18    29.88F
EDINBURG       PTCLDY    89  72  56 SE17      29.89F
$$


USA.gov is the U.S. government's official web portal to all federal, state and local government web resources and services.